| time (UTC) | temp F | wind direction | speed knots | gust knots | rain 1hr in | rain 24hr in | rain mn in | humidity % | barometer mb |
| 20260904181531 | 55 | 161 | 0.0 | 1.7 | 0.00 | 0.15 | 0.15 | 78 | 1014.4 |
| 20260904180023 | 55 | 162 | 0.9 | 2.6 | 0.00 | 0.15 | 0.15 | 79 | 1014.3 |
| 20260904174519 | 54 | 161 | 0.0 | 2.6 | 0.00 | 0.15 | 0.15 | 84 | 1014.3 |
| 20260904173041 | 53 | 161 | 0.0 | 0.9 | 0.00 | 0.15 | 0.15 | 83 | 1014.3 |
| 20260904171513 | 52 | 162 | 0.0 | 0.9 | 0.00 | 0.15 | 0.15 | 85 | 1014.4 |
| 20260904170010 | 51 | 161 | 0.0 | 0.0 | 0.00 | 0.15 | 0.15 | 88 | 1014.0 |
| 20260904164505 | 50 | 162 | 0.0 | 0.0 | 0.00 | 0.15 | 0.15 | 90 | 1014.0 |
| 20260904163004 | 50 | 162 | 0.0 | 0.9 | 0.00 | 0.15 | 0.15 | 90 | 1013.9 |
| 20260904161507 | 50 | 162 | 0.0 | 1.7 | 0.00 | 0.15 | 0.15 | 90 | 1013.7 |
| 20260904160003 | 50 | 162 | 0.9 | 1.7 | 0.00 | 0.15 | 0.15 | 91 | 1013.4 |
| 20260904154559 | 50 | 162 | 0.0 | 1.7 | 0.00 | 0.15 | 0.15 | 91 | 1013.1 |
| 20260904153100 | 49 | 162 | 0.0 | 0.9 | 0.01 | 0.15 | 0.15 | 92 | 1013.1 |
| 20260904151601 | 49 | 162 | 0.0 | 0.9 | 0.01 | 0.15 | 0.15 | 93 | 1012.9 |
| 20260904150056 | 49 | 162 | 0.9 | 1.7 | 0.01 | 0.15 | 0.15 | 93 | 1012.8 |
| 20260904144609 | 49 | 162 | 0.0 | 0.9 | 0.01 | 0.15 | 0.15 | 94 | 1012.7 |
| 20260904143059 | 48 | 162 | 0.0 | 0.0 | 0.00 | 0.14 | 0.14 | 94 | 1012.7 |
| 20260904141556 | 48 | 162 | 0.0 | 0.0 | 0.00 | 0.14 | 0.14 | 95 | 1012.5 |
| 20260904140050 | 48 | 162 | 0.0 | 0.9 | 0.00 | 0.14 | 0.14 | 95 | 1012.3 |
| 20260904134547 | 48 | 162 | 0.0 | 0.0 | 0.00 | 0.14 | 0.14 | 94 | 1012.2 |
| 20260904133056 | 48 | 161 | 0.0 | 0.0 | 0.00 | 0.14 | 0.14 | 94 | 1011.9 |
| 20260904131547 | 48 | 162 | 0.0 | 0.9 | 0.00 | 0.14 | 0.14 | 94 | 1011.8 |
| 20260904130044 | 48 | 162 | 0.0 | 0.9 | 0.00 | 0.14 | 0.14 | 93 | 1011.4 |
| 20260904124542 | 48 | 162 | 0.0 | 0.0 | 0.00 | 0.14 | 0.14 | 93 | 1011.0 |
| 20260904123039 | 48 | 162 | 0.0 | 0.9 | 0.00 | 0.14 | 0.14 | 93 | 1010.9 |
| 20260904121537 | 48 | 162 | 0.0 | 2.6 | 0.00 | 0.14 | 0.14 | 93 | 1010.7 |
| 20260904120037 | 48 | 162 | 0.0 | 1.7 | 0.00 | 0.14 | 0.14 | 93 | 1010.7 |
| 20260904114535 | 48 | 162 | 0.0 | 1.7 | 0.00 | 0.15 | 0.14 | 91 | 1009.9 |
| 20260904113034 | 48 | 162 | 0.9 | 4.3 | 0.00 | 0.15 | 0.14 | 91 | 1009.7 |
| 20260904111532 | 48 | 162 | 1.7 | 3.5 | 0.00 | 0.15 | 0.14 | 92 | 1009.7 |
| 20260904110032 | 48 | 161 | 0.0 | 1.7 | 0.01 | 0.15 | 0.14 | 94 | 1010.0 |
| 20260904104530 | 48 | 162 | 0.0 | 0.9 | 0.04 | 0.15 | 0.14 | 93 | 1010.0 |
| 20260904103028 | 48 | 162 | 0.0 | 0.0 | 0.13 | 0.15 | 0.14 | 92 | 1009.8 |
| 20260904101528 | 49 | 162 | 0.0 | 2.6 | 0.13 | 0.15 | 0.14 | 91 | 1009.5 |
| 20260904100027 | 48 | 162 | 0.9 | 3.5 | 0.12 | 0.14 | 0.13 | 91 | 1009.2 |
| 20260904094525 | 49 | 162 | 0.0 | 0.9 | 0.09 | 0.11 | 0.10 | 91 | 1009.4 |
| 20260904093022 | 49 | 162 | 0.9 | 2.6 | 0.00 | 0.02 | 0.01 | 90 | 1009.7 |
| 20260904091540 | 48 | 162 | 0.0 | 1.7 | 0.00 | 0.02 | 0.01 | 91 | 1009.4 |
| 20260904090020 | 49 | 162 | 0.0 | 0.9 | 0.00 | 0.02 | 0.01 | 90 | 1008.9 |
| 20260904084519 | 49 | 162 | 0.0 | 0.9 | 0.00 | 0.02 | 0.01 | 90 | 1008.9 |
| 20260904083026 | 48 | 161 | 0.0 | 0.9 | 0.00 | 0.02 | 0.01 | 90 | 1009.0 |
| 20260904081518 | 48 | 162 | 0.0 | 0.9 | 0.00 | 0.02 | 0.01 | 90 | 1009.0 |
| 20260904080017 | 48 | 162 | 0.0 | 0.9 | 0.01 | 0.02 | 0.01 | 89 | 1008.5 |
| 20260904074515 | 49 | 162 | 0.0 | 0.9 | 0.01 | 0.04 | 0.01 | 88 | 1008.1 |
| 20260904073017 | 49 | 162 | 0.0 | 0.9 | 0.01 | 0.04 | 0.01 | 89 | 1008.3 |
| 20260904071511 | 50 | 162 | 0.9 | 3.5 | 0.01 | 0.04 | 0.01 | 84 | 1008.8 |
| 20260904070010 | 50 | 162 | 0.0 | 1.7 | 0.00 | 0.03 | 0.00 | 84 | 1008.9 |
| 20260904064509 | 50 | 162 | 0.0 | 0.9 | 0.00 | 0.04 | 0.00 | 84 | 1009.2 |
| 20260904063018 | 50 | 162 | 0.0 | 0.9 | 0.00 | 0.04 | 0.00 | 83 | 1009.3 |
| 20260904061508 | 49 | 160 | 0.0 | 1.7 | 0.00 | 0.04 | 0.00 | 84 | 1009.0 |
| 20260904054600 | 51 | 160 | 0.0 | 0.0 | 0.00 | 0.04 | 0.04 | 73 | 1008.1 |
| 20260904053107 | 51 | 161 | 0.0 | 0.9 | 0.00 | 0.04 | 0.04 | 73 | 1008.5 |
| 20260904051602 | 50 | 160 | 0.0 | 0.0 | 0.00 | 0.04 | 0.04 | 76 | 1009.1 |
| 20260904050106 | 51 | 160 | 0.0 | 0.0 | 0.00 | 0.04 | 0.04 | 75 | 1009.6 |
| 20260904044608 | 51 | 160 | 0.0 | 0.9 | 0.00 | 0.04 | 0.04 | 74 | 1009.4 |
| 20260904043101 | 51 | 160 | 0.0 | 0.9 | 0.00 | 0.04 | 0.04 | 73 | 1009.4 |
| 20260904041556 | 51 | 160 | 0.0 | 1.7 | 0.00 | 0.04 | 0.04 | 73 | 1009.7 |
| 20260904040056 | 52 | 160 | 0.9 | 4.3 | 0.00 | 0.04 | 0.04 | 68 | 1009.9 |
| 20260904034554 | 52 | 160 | 1.7 | 4.3 | 0.00 | 0.04 | 0.04 | 66 | 1010.0 |
| 20260904033059 | 52 | 160 | 2.6 | 4.3 | 0.00 | 0.04 | 0.04 | 68 | 1010.3 |
| 20260904031604 | 52 | 160 | 0.9 | 3.5 | 0.00 | 0.04 | 0.04 | 67 | 1010.2 |
| 20260904030053 | 51 | 160 | 0.0 | 2.6 | 0.00 | 0.04 | 0.04 | 71 | 1010.3 |
| 20260904024552 | 52 | 160 | 1.7 | 4.3 | 0.00 | 0.04 | 0.04 | 67 | 1010.1 |
| 20260904023053 | 54 | 160 | 1.7 | 4.3 | 0.00 | 0.04 | 0.04 | 63 | 1010.2 |
| 20260904021553 | 54 | 160 | 0.0 | 1.7 | 0.00 | 0.04 | 0.04 | 62 | 1009.8 |
| 20260904020050 | 55 | 161 | 0.0 | 0.0 | 0.00 | 0.04 | 0.04 | 63 | 1009.7 |
| 20260904014550 | 57 | 160 | 0.0 | 0.9 | 0.00 | 0.04 | 0.04 | 60 | 1009.6 |
| 20260904013049 | 60 | 160 | 0.0 | 1.7 | 0.00 | 0.04 | 0.04 | 52 | 1009.7 |
| 20260904011548 | 62 | 160 | 0.0 | 1.7 | 0.00 | 0.04 | 0.04 | 46 | 1009.8 |
| 20260904010051 | 62 | 160 | 0.0 | 3.5 | 0.00 | 0.04 | 0.04 | 44 | 1010.0 |
| 20260904004548 | 64 | 161 | 1.7 | 5.2 | 0.00 | 0.04 | 0.04 | 41 | 1010.1 |
| 20260904003047 | 65 | 160 | 0.9 | 3.5 | 0.00 | 0.04 | 0.04 | 40 | 1010.1 |
| 20260904001546 | 66 | 160 | 1.7 | 7.8 | 0.00 | 0.04 | 0.04 | 41 | 1010.1 |
| 20260904000044 | 66 | 160 | 2.6 | 4.3 | 0.00 | 0.04 | 0.04 | 41 | 1010.2 |
| 20260903234540 | 66 | 160 | 0.0 | 4.3 | 0.00 | 0.04 | 0.04 | 45 | 1010.3 |
| 20260903233044 | 64 | 160 | 0.9 | 5.2 | 0.00 | 0.04 | 0.04 | 46 | 1010.3 |
| 20260903231539 | 66 | 160 | 0.9 | 5.2 | 0.00 | 0.04 | 0.04 | 45 | 1010.4 |
| 20260903230039 | 65 | 160 | 1.7 | 5.2 | 0.00 | 0.04 | 0.04 | 49 | 1010.6 |
| 20260903224541 | 63 | 160 | 1.7 | 6.1 | 0.00 | 0.04 | 0.04 | 50 | 1010.2 |
| 20260903223038 | 64 | 160 | 2.6 | 5.2 | 0.00 | 0.04 | 0.04 | 50 | 1010.0 |
| 20260903221546 | 64 | 160 | 1.7 | 6.1 | 0.00 | 0.04 | 0.04 | 51 | 1010.1 |
| 20260903220036 | 64 | 160 | 3.5 | 7.0 | 0.00 | 0.04 | 0.04 | 50 | 1010.0 |
| 20260903214535 | 66 | 160 | 2.6 | 6.1 | 0.00 | 0.04 | 0.04 | 52 | 1010.3 |
| 20260903213035 | 66 | 160 | 2.6 | 13.9 | 0.00 | 0.04 | 0.04 | 51 | 1010.2 |
| 20260903211532 | 65 | 160 | 0.9 | 7.8 | 0.00 | 0.04 | 0.04 | 46 | 1010.2 |
| 20260903210030 | 65 | 160 | 0.0 | 6.1 | 0.00 | 0.04 | 0.04 | 53 | 1010.2 |
| 20260903204529 | 63 | 160 | 2.6 | 7.8 | 0.00 | 0.04 | 0.04 | 55 | 1010.1 |
| 20260903203044 | 64 | 161 | 2.6 | 8.7 | 0.00 | 0.04 | 0.04 | 55 | 1010.1 |
| 20260903201528 | 64 | 160 | 0.0 | 3.5 | 0.00 | 0.04 | 0.04 | 53 | 1010.3 |
| 20260903200039 | 62 | 161 | 0.9 | 3.5 | 0.00 | 0.04 | 0.04 | 58 | 1010.4 |
| 20260903194537 | 62 | 160 | 0.9 | 2.6 | 0.00 | 0.21 | 0.04 | 63 | 1010.4 |
| 20260903193033 | 61 | 160 | 0.9 | 3.5 | 0.00 | 0.21 | 0.04 | 61 | 1010.7 |
| 20260903191523 | 60 | 160 | 2.6 | 6.1 | 0.00 | 0.21 | 0.04 | 63 | 1010.7 |
| 20260903190023 | 61 | 160 | 1.7 | 9.6 | 0.00 | 0.21 | 0.04 | 56 | 1010.4 |
| 20260903184520 | 61 | 161 | 0.9 | 9.6 | 0.00 | 0.21 | 0.04 | 60 | 1010.5 |
| 20260903183021 | 63 | 161 | 1.7 | 6.1 | 0.00 | 0.21 | 0.04 | 53 | 1010.2 |